This is the latest recevied weather packets stored in our database for station/object KK4WXG. If no packets are shown the sender has not sent any weather packets the latest 10 day(s).
| Time | Temp. | Humidity | Pressure | Rain* | Wind** | Luminosity | Snow |
|---|---|---|---|---|---|---|---|
| 1777950049 | 17.78° C | 58% | 1010.1 hPa | 0 mm | - | 0 W/m² | - |
| 1777949745 | 17.78° C | 58% | 1010 hPa | 0 mm | - | 0 W/m² | - |
| 1777949445 | 17.78° C | 58% | 1010.3 hPa | 0 mm | - | 0 W/m² | - |
| 1777949141 | 17.22° C | 58% | 1010.1 hPa | 0 mm | - | 0 W/m² | - |
| 1777948838 | 17.22° C | 58% | 1010.2 hPa | 0 mm | - | 0 W/m² | - |
| 1777948535 | 17.78° C | 58% | 1009.9 hPa | 0 mm | - | 0 W/m² | - |
| 1777948233 | 17.78° C | 57% | 1009.8 hPa | 0 mm | - | 0 W/m² | - |
| 1777947930 | 17.78° C | 57% | 1010 hPa | 0 mm | - | 0 W/m² | - |
| 1777947627 | 18.33° C | 56% | 1009.8 hPa | 0 mm | - | 0 W/m² | - |
| 1777947324 | 18.33° C | 55% | 1009.9 hPa | 0 mm | - | 0 W/m² | - |
| 1777947021 | 18.89° C | 54% | 1009.9 hPa | 0 mm | - | 0 W/m² | - |
| 1777946720 | 18.89° C | 54% | 1010 hPa | 0 mm | - | 0 W/m² | - |
| 1777946418 | 18.89° C | 53% | 1009.9 hPa | 0 mm | - | 0 W/m² | - |
| 1777946115 | 18.89° C | 52% | 1009.9 hPa | 0 mm | - | 0 W/m² | - |
| 1777945812 | 19.44° C | 51% | 1009.9 hPa | 0 mm | - | 0 W/m² | - |
| 1777945509 | 19.44° C | 51% | 1009.7 hPa | 0 mm | - | 0 W/m² | - |
| 1777945206 | 20° C | 50% | 1009.4 hPa | 0 mm | - | 0 W/m² | - |
| 1777944903 | 20° C | 49% | 1009.6 hPa | 0 mm | - | 0 W/m² | - |
| 1777944600 | 20° C | 49% | 1009.4 hPa | 0 mm | - | 0 W/m² | - |
| 1777944298 | 20° C | 49% | 1009.5 hPa | 0 mm | - | 0 W/m² | - |
| 1777943995 | 20° C | 49% | 1009.4 hPa | 0 mm | - | 0 W/m² | - |
| 1777943690 | 20° C | 48% | 1009.5 hPa | 0 mm | - | 0 W/m² | - |
| 1777943387 | 20.56° C | 48% | 1009.3 hPa | 0 mm | - | 0 W/m² | - |
| 1777943083 | 20.56° C | 47% | 1009.1 hPa | 0 mm | - | 0 W/m² | - |
| 1777942779 | 20.56° C | 47% | 1009 hPa | 0 mm | - | 0 W/m² | - |
* Rain latest hour (hover to see other rain measurements)
** Current wind speed in m/s (hover to see current wind gust speed)